Location: Unspecified
(35.7250°N, 0.0000°E)
Time: 21:14:51
(UTC+00:00)

Explorer 7 - Pass Details

Date: 25 June 2019
Orbit: 485 x 680 km, 50.3° (Epoch: 21 August)

Event Time Altitude Azimuth Distance (km) Brightness Sun altitude
Rises 07:12:03 0° 236° (SW) 2,651 9.8 27.0°
Reaches altitude 10° 07:14:13 10° 239° (WSW) 1,794 9.0 27.4°
Maximum altitude 07:18:17 67° 322° (NW) 613 7.3 28.3°
Drops below altitude 10° 07:22:39 10° 46° (NE) 1,925 10.6 29.1°
Sets 07:25:02 0° 49° (NE) 2,865 11.3 29.6°
